User: anonymous   Login
Location: Dover
(39.1580°N, 75.5250°W)
Time: 09:01:34
(UTC-04:00)
Language:

Cosmos 1437 Rocket - Orbit

View from above orbital plane
View from above orbital plane
View from above satellite
View from above satellite

Ground track
Ground track

The orbit data is extracted from the following two-line orbital elements,

1 13771U 83003B   15141.39801904  .00002288  00000-0  14468-3 0  9995
2 13771 081.1569 156.0085 0028784 354.4504 005.6396 15.08306728759493
Epoch (UTC): 21 May 2015 09:33:08
Eccentricity: 0.0028784
inclination: 81.1569°
perigee height: 521 km
apogee height: 561 km
right ascension of ascending node: 156.0085°
argument of perigee: 354.4504°
revolutions per day: 15.08306728
mean anomaly at epoch: 5.6396°
orbit number at epoch: 75949

The dashed part of the orbit path shows where the satellite is in the earth's shadow,  

DLR